Year,Month,Day,Hour,Minute,Value (Times are PST for temperature in C)
2009,07,28,00,00,23.00
2009,07,28,00,01,23.00
2009,07,28,00,02,23.00
2009,07,28,00,03,23.00
2009,07,28,00,04,23.00
2009,07,28,00,05,23.00
2009,07,28,00,06,22.90
2009,07,28,00,07,22.90
2009,07,28,00,08,22.90
2009,07,28,00,09,22.90
2009,07,28,00,10,22.90
2009,07,28,00,11,22.90
2009,07,28,00,12,22.80
2009,07,28,00,13,22.80
2009,07,28,00,14,22.80
2009,07,28,00,15,22.80
2009,07,28,00,16,22.80
2009,07,28,00,17,22.70
2009,07,28,00,18,22.70
2009,07,28,00,19,22.70
2009,07,28,00,20,22.70
2009,07,28,00,21,22.70
2009,07,28,00,22,22.70
2009,07,28,00,23,22.60
2009,07,28,00,24,22.60
2009,07,28,00,25,22.60
2009,07,28,00,26,22.60
2009,07,28,00,27,22.50
2009,07,28,00,28,22.50
2009,07,28,00,29,22.50
2009,07,28,00,30,22.40
2009,07,28,00,31,22.40
2009,07,28,00,32,22.40
2009,07,28,00,33,22.40
2009,07,28,00,34,22.40
2009,07,28,00,35,22.30
2009,07,28,00,36,22.30
2009,07,28,00,37,22.30
2009,07,28,00,38,22.30
2009,07,28,00,39,22.30
2009,07,28,00,40,22.30
2009,07,28,00,41,22.30
2009,07,28,00,42,22.30
2009,07,28,00,43,22.30
2009,07,28,00,44,22.30
2009,07,28,00,45,22.30
2009,07,28,00,46,22.30
2009,07,28,00,47,22.20
2009,07,28,00,48,22.20
2009,07,28,00,49,22.20
2009,07,28,00,50,22.20
2009,07,28,00,51,22.10
2009,07,28,00,52,22.10
2009,07,28,00,53,22.10
2009,07,28,00,54,22.00
2009,07,28,00,55,21.90
2009,07,28,00,56,21.90
2009,07,28,00,57,21.90
2009,07,28,00,58,21.90
2009,07,28,00,59,21.80
2009,07,28,01,00,21.90
2009,07,28,01,01,21.90
2009,07,28,01,02,21.90
2009,07,28,01,03,21.90
2009,07,28,01,04,21.90
2009,07,28,01,05,21.90
2009,07,28,01,06,21.90
2009,07,28,01,07,21.90
2009,07,28,01,08,21.90
2009,07,28,01,09,21.90
2009,07,28,01,10,21.90
2009,07,28,01,11,21.90
2009,07,28,01,12,21.90
2009,07,28,01,13,21.90
2009,07,28,01,14,21.90
2009,07,28,01,15,21.90
2009,07,28,01,16,21.90
2009,07,28,01,17,21.90
2009,07,28,01,18,21.90
2009,07,28,01,19,21.80
2009,07,28,01,20,21.80
2009,07,28,01,21,21.80
2009,07,28,01,22,21.80
2009,07,28,01,23,21.80
2009,07,28,01,24,21.70
2009,07,28,01,25,21.70
2009,07,28,01,26,21.70
2009,07,28,01,27,21.70
2009,07,28,01,28,21.70
2009,07,28,01,29,21.60
2009,07,28,01,30,21.60
2009,07,28,01,31,21.60
2009,07,28,01,32,21.60
2009,07,28,01,33,21.50
2009,07,28,01,34,21.50
2009,07,28,01,35,21.40
2009,07,28,01,36,21.40
2009,07,28,01,37,21.40
2009,07,28,01,38,21.40
2009,07,28,01,39,21.30
2009,07,28,01,40,21.30
2009,07,28,01,41,21.20
2009,07,28,01,42,21.10
2009,07,28,01,43,21.10
2009,07,28,01,44,21.00
2009,07,28,01,45,21.00
2009,07,28,01,46,20.90
2009,07,28,01,47,20.90
2009,07,28,01,48,20.90
2009,07,28,01,49,20.80
2009,07,28,01,50,20.80
2009,07,28,01,51,20.80
2009,07,28,01,52,20.70
2009,07,28,01,53,20.70
2009,07,28,01,54,20.70
2009,07,28,01,55,20.70
2009,07,28,01,56,20.60
2009,07,28,01,57,20.60
2009,07,28,01,58,20.60
2009,07,28,01,59,20.50
2009,07,28,02,00,20.50
2009,07,28,02,01,20.40
2009,07,28,02,02,20.40
2009,07,28,02,03,20.30
2009,07,28,02,04,20.30
2009,07,28,02,05,20.30
2009,07,28,02,06,20.20
2009,07,28,02,07,20.20
2009,07,28,02,08,20.10
2009,07,28,02,09,20.10
2009,07,28,02,10,20.00
2009,07,28,02,11,20.00
2009,07,28,02,12,20.00
2009,07,28,02,13,19.90
2009,07,28,02,14,19.90
2009,07,28,02,15,19.90
2009,07,28,02,16,19.90
2009,07,28,02,17,19.90
2009,07,28,02,18,19.90
2009,07,28,02,19,19.90
2009,07,28,02,20,19.90
2009,07,28,02,21,19.90
2009,07,28,02,22,19.90
2009,07,28,02,23,19.90
2009,07,28,02,24,19.90
2009,07,28,02,25,19.90
2009,07,28,02,26,19.90
2009,07,28,02,27,19.90
2009,07,28,02,28,19.90
2009,07,28,02,29,19.90
2009,07,28,02,30,19.90
2009,07,28,02,31,19.90
2009,07,28,02,32,19.90
2009,07,28,02,33,19.90
2009,07,28,02,34,19.90
2009,07,28,02,35,19.90
2009,07,28,02,36,19.90
2009,07,28,02,37,19.90
2009,07,28,02,38,19.90
2009,07,28,02,39,19.90
2009,07,28,02,40,19.90
2009,07,28,02,41,19.90
2009,07,28,02,42,19.90
2009,07,28,02,43,19.90
2009,07,28,02,44,19.80
2009,07,28,02,45,19.80
2009,07,28,02,46,19.80
2009,07,28,02,47,19.80
2009,07,28,02,48,19.80
2009,07,28,02,49,19.80
2009,07,28,02,50,19.70
2009,07,28,02,51,19.70
2009,07,28,02,52,19.70
2009,07,28,02,53,19.70
2009,07,28,02,54,19.70
2009,07,28,02,55,19.70
2009,07,28,02,56,19.60
2009,07,28,02,57,19.60
2009,07,28,02,58,19.60
2009,07,28,02,59,19.60
2009,07,28,03,00,19.60
2009,07,28,03,01,19.50
2009,07,28,03,02,19.50
2009,07,28,03,03,19.50
2009,07,28,03,04,19.50
2009,07,28,03,05,19.50
2009,07,28,03,06,19.50
2009,07,28,03,07,19.50
2009,07,28,03,08,19.50
2009,07,28,03,09,19.50
2009,07,28,03,10,19.50
2009,07,28,03,11,19.50
2009,07,28,03,12,19.50
2009,07,28,03,13,19.50
2009,07,28,03,14,19.40
2009,07,28,03,15,19.40
2009,07,28,03,16,19.40
2009,07,28,03,17,19.40
2009,07,28,03,18,19.40
2009,07,28,03,19,19.40
2009,07,28,03,20,19.40
2009,07,28,03,21,19.40
2009,07,28,03,22,19.40
2009,07,28,03,23,19.40
2009,07,28,03,24,19.40
2009,07,28,03,25,19.40
2009,07,28,03,26,19.30
2009,07,28,03,27,19.30
2009,07,28,03,28,19.30
2009,07,28,03,29,19.30
2009,07,28,03,30,19.30
2009,07,28,03,31,19.30
2009,07,28,03,32,19.30
2009,07,28,03,33,19.30
2009,07,28,03,34,19.30
2009,07,28,03,35,19.30
2009,07,28,03,36,19.30
2009,07,28,03,37,19.30
2009,07,28,03,38,19.40
2009,07,28,03,39,19.40
2009,07,28,03,40,19.50
2009,07,28,03,41,19.50
2009,07,28,03,42,19.60
2009,07,28,03,43,19.60
2009,07,28,03,44,19.60
2009,07,28,03,45,19.70
2009,07,28,03,46,19.70
2009,07,28,03,47,19.70
2009,07,28,03,48,19.70
2009,07,28,03,49,19.70
2009,07,28,03,50,19.70
2009,07,28,03,51,19.80
2009,07,28,03,52,19.80
2009,07,28,03,53,19.80
2009,07,28,03,54,19.80
2009,07,28,03,55,19.80
2009,07,28,03,56,19.80
2009,07,28,03,57,19.80
2009,07,28,03,58,19.80
2009,07,28,03,59,19.80
2009,07,28,04,00,19.80
2009,07,28,04,01,19.80
2009,07,28,04,02,19.80
2009,07,28,04,03,19.80
2009,07,28,04,04,19.70
2009,07,28,04,05,19.70
2009,07,28,04,06,19.60
2009,07,28,04,07,19.60
2009,07,28,04,08,19.50
2009,07,28,04,09,19.50
2009,07,28,04,10,19.40
2009,07,28,04,11,19.40
2009,07,28,04,12,19.30
2009,07,28,04,13,19.30
2009,07,28,04,14,19.30
2009,07,28,04,15,19.30
2009,07,28,04,16,19.30
2009,07,28,04,17,19.30
2009,07,28,04,18,19.30
2009,07,28,04,19,19.40
2009,07,28,04,20,19.40
2009,07,28,04,21,19.40
2009,07,28,04,22,19.40
2009,07,28,04,23,19.40
2009,07,28,04,24,19.40
2009,07,28,04,25,19.40
2009,07,28,04,26,19.40
2009,07,28,04,27,19.40
2009,07,28,04,28,19.40
2009,07,28,04,29,19.40
2009,07,28,04,30,19.40
2009,07,28,04,31,19.30
2009,07,28,04,32,19.30
2009,07,28,04,33,19.30
2009,07,28,04,34,19.30
2009,07,28,04,35,19.20
2009,07,28,04,36,19.20
2009,07,28,04,37,19.20
2009,07,28,04,38,19.20
2009,07,28,04,39,19.10
2009,07,28,04,40,19.10
2009,07,28,04,41,19.10
2009,07,28,04,42,19.00
2009,07,28,04,43,19.00
2009,07,28,04,44,18.90
2009,07,28,04,45,18.90
2009,07,28,04,46,18.90
2009,07,28,04,47,18.90
2009,07,28,04,48,18.90
2009,07,28,04,49,18.90
2009,07,28,04,50,18.90
2009,07,28,04,51,18.80
2009,07,28,04,52,18.80
2009,07,28,04,53,18.80
2009,07,28,04,54,18.80
2009,07,28,04,55,18.80
2009,07,28,04,56,18.80
2009,07,28,04,57,18.70
2009,07,28,04,58,18.70
2009,07,28,04,59,18.70
2009,07,28,05,00,18.70
2009,07,28,05,01,18.70
2009,07,28,05,02,18.70
2009,07,28,05,03,18.70
2009,07,28,05,04,18.60
2009,07,28,05,05,18.60
2009,07,28,05,06,18.60
2009,07,28,05,07,18.60
2009,07,28,05,08,18.60
2009,07,28,05,09,18.50
2009,07,28,05,10,18.50
2009,07,28,05,11,18.50
2009,07,28,05,12,18.50
2009,07,28,05,13,18.50
2009,07,28,05,14,18.50
2009,07,28,05,15,18.50
2009,07,28,05,16,18.50
2009,07,28,05,17,18.50
2009,07,28,05,18,18.50
2009,07,28,05,19,18.50
2009,07,28,05,20,18.50
2009,07,28,05,21,18.50
2009,07,28,05,22,18.40
2009,07,28,05,23,18.40
2009,07,28,05,24,18.40
2009,07,28,05,25,18.40
2009,07,28,05,26,18.40
2009,07,28,05,27,18.40
2009,07,28,05,28,18.40
2009,07,28,05,29,18.40
2009,07,28,05,30,18.40
2009,07,28,05,31,18.40
2009,07,28,05,32,18.40
2009,07,28,05,33,18.40
2009,07,28,05,34,18.30
2009,07,28,05,35,18.30
2009,07,28,05,36,18.30
2009,07,28,05,37,18.30
2009,07,28,05,38,18.30
2009,07,28,05,39,18.30
2009,07,28,05,40,18.30
2009,07,28,05,41,18.30
2009,07,28,05,42,18.30
2009,07,28,05,43,18.30
2009,07,28,05,44,18.30
2009,07,28,05,45,18.30
2009,07,28,05,46,18.30
2009,07,28,05,47,18.30
2009,07,28,05,48,18.30
2009,07,28,05,49,18.30
2009,07,28,05,50,18.20
2009,07,28,05,51,18.20
2009,07,28,05,52,18.20
2009,07,28,05,53,18.20
2009,07,28,05,54,18.20
2009,07,28,05,55,18.20
2009,07,28,05,56,18.20
2009,07,28,05,57,18.20
2009,07,28,05,58,18.10
2009,07,28,05,59,18.10
2009,07,28,06,00,18.10
2009,07,28,06,01,18.10
2009,07,28,06,02,18.10
2009,07,28,06,03,18.10
2009,07,28,06,04,18.10
2009,07,28,06,05,18.10
2009,07,28,06,06,18.10
2009,07,28,06,07,18.10
2009,07,28,06,08,18.10
2009,07,28,06,09,18.10
2009,07,28,06,10,18.10
2009,07,28,06,11,18.10
2009,07,28,06,12,18.10
2009,07,28,06,13,18.10
2009,07,28,06,14,18.10
2009,07,28,06,15,18.10
2009,07,28,06,16,18.00
2009,07,28,06,17,18.00
2009,07,28,06,18,18.00
2009,07,28,06,19,18.00
2009,07,28,06,20,18.00
2009,07,28,06,21,18.00
2009,07,28,06,22,18.00
2009,07,28,06,23,18.00
2009,07,28,06,24,18.00
2009,07,28,06,25,18.00
2009,07,28,06,26,17.90
2009,07,28,06,27,17.90
2009,07,28,06,28,17.90
2009,07,28,06,29,17.90
2009,07,28,06,30,17.90
2009,07,28,06,31,17.90
2009,07,28,06,32,17.90
2009,07,28,06,33,17.90
2009,07,28,06,34,17.90
2009,07,28,06,35,17.90
2009,07,28,06,36,17.90
2009,07,28,06,37,17.90
2009,07,28,06,38,17.90
2009,07,28,06,39,17.90
2009,07,28,06,40,17.90
2009,07,28,06,41,17.90
2009,07,28,06,42,18.00
2009,07,28,06,43,18.00
2009,07,28,06,44,18.00
2009,07,28,06,45,18.10
2009,07,28,06,46,18.10
2009,07,28,06,47,18.10
2009,07,28,06,48,18.10
2009,07,28,06,49,18.10
2009,07,28,06,50,18.10
2009,07,28,06,51,18.10
2009,07,28,06,52,18.10
2009,07,28,06,53,18.10
2009,07,28,06,54,18.10
2009,07,28,06,55,18.10
2009,07,28,06,56,18.10
2009,07,28,06,57,18.20
2009,07,28,06,58,18.20
2009,07,28,06,59,18.20
2009,07,28,07,00,18.20
2009,07,28,07,01,18.20
2009,07,28,07,02,18.20
2009,07,28,07,03,18.20
2009,07,28,07,04,18.30
2009,07,28,07,05,18.30
2009,07,28,07,06,18.30
2009,07,28,07,07,18.30
2009,07,28,07,08,18.40
2009,07,28,07,09,18.40
2009,07,28,07,10,18.40
2009,07,28,07,11,18.40
2009,07,28,07,12,18.50
2009,07,28,07,13,18.50
2009,07,28,07,14,18.60
2009,07,28,07,15,18.60
2009,07,28,07,16,18.60
2009,07,28,07,17,18.70
2009,07,28,07,18,18.70
2009,07,28,07,19,18.70
2009,07,28,07,20,18.80
2009,07,28,07,21,18.80
2009,07,28,07,22,18.90
2009,07,28,07,23,18.90
2009,07,28,07,24,19.00
2009,07,28,07,25,19.00
2009,07,28,07,26,19.10
2009,07,28,07,27,19.10
2009,07,28,07,28,19.20
2009,07,28,07,29,19.20
2009,07,28,07,30,19.30
2009,07,28,07,31,19.40
2009,07,28,07,32,19.50
2009,07,28,07,33,19.60
2009,07,28,07,34,19.70
2009,07,28,07,35,19.80
2009,07,28,07,36,19.90
2009,07,28,07,37,20.00
2009,07,28,07,38,20.10
2009,07,28,07,39,20.20
2009,07,28,07,40,20.30
2009,07,28,07,41,20.40
2009,07,28,07,42,20.50
2009,07,28,07,43,20.60
2009,07,28,07,44,20.70
2009,07,28,07,45,20.70
2009,07,28,07,46,20.80
2009,07,28,07,47,20.80
2009,07,28,07,48,20.90
2009,07,28,07,49,21.00
2009,07,28,07,50,21.00
2009,07,28,07,51,21.10
2009,07,28,07,52,21.20
2009,07,28,07,53,21.20
2009,07,28,07,54,21.20
2009,07,28,07,55,21.30
2009,07,28,07,56,21.40
2009,07,28,07,57,21.40
2009,07,28,07,58,21.50
2009,07,28,07,59,21.60
2009,07,28,08,00,21.70
2009,07,28,08,01,21.80
2009,07,28,08,02,21.90
2009,07,28,08,03,22.00
2009,07,28,08,04,22.10
2009,07,28,08,05,22.20
2009,07,28,08,06,22.30
2009,07,28,08,07,22.40
2009,07,28,08,08,22.60
2009,07,28,08,09,22.70
2009,07,28,08,10,22.80
2009,07,28,08,11,22.90
2009,07,28,08,12,22.90
2009,07,28,08,13,23.00
2009,07,28,08,14,23.10
2009,07,28,08,15,23.20
2009,07,28,08,16,23.30
2009,07,28,08,17,23.30
2009,07,28,08,18,23.40
2009,07,28,08,19,23.40
2009,07,28,08,20,23.50
2009,07,28,08,21,23.50
2009,07,28,08,22,23.60
2009,07,28,08,23,23.60
2009,07,28,08,24,23.70
2009,07,28,08,25,23.80
2009,07,28,08,26,23.80
2009,07,28,08,27,23.90
2009,07,28,08,28,24.00
2009,07,28,08,29,24.10
2009,07,28,08,30,24.20
2009,07,28,08,31,24.30
2009,07,28,08,32,24.30
2009,07,28,08,33,24.40
2009,07,28,08,34,24.50
2009,07,28,08,35,24.60
2009,07,28,08,36,24.70
2009,07,28,08,37,24.70
2009,07,28,08,38,24.80
2009,07,28,08,39,24.90
2009,07,28,08,40,24.90
2009,07,28,08,41,24.90
2009,07,28,08,42,25.00
2009,07,28,08,43,25.00
2009,07,28,08,44,25.10
2009,07,28,08,45,25.20
2009,07,28,08,46,25.20
2009,07,28,08,47,25.30
2009,07,28,08,48,25.30
2009,07,28,08,49,25.30
2009,07,28,08,50,25.40
2009,07,28,08,51,25.40
2009,07,28,08,52,25.40
2009,07,28,08,53,25.50
2009,07,28,08,54,25.60
2009,07,28,08,55,25.60
2009,07,28,08,56,25.70
2009,07,28,08,57,25.80
2009,07,28,08,58,25.80
2009,07,28,08,59,25.90
2009,07,28,09,00,25.90
2009,07,28,09,01,25.90
2009,07,28,09,02,26.00
2009,07,28,09,03,26.00
2009,07,28,09,04,26.10
2009,07,28,09,05,26.20
2009,07,28,09,06,26.30
2009,07,28,09,07,26.40
2009,07,28,09,08,26.40
2009,07,28,09,09,26.40
2009,07,28,09,10,26.40
2009,07,28,09,11,26.50
2009,07,28,09,12,26.50
2009,07,28,09,13,26.60
2009,07,28,09,14,26.70
2009,07,28,09,15,26.70
2009,07,28,09,16,26.70
2009,07,28,09,17,26.80
2009,07,28,09,18,26.80
2009,07,28,09,19,26.80
2009,07,28,09,20,26.90
2009,07,28,09,21,26.90
2009,07,28,09,22,26.90
2009,07,28,09,23,26.90
2009,07,28,09,24,26.90
2009,07,28,09,25,26.90
2009,07,28,09,26,26.90
2009,07,28,09,27,26.90
2009,07,28,09,28,26.90
2009,07,28,09,29,26.90
2009,07,28,09,30,27.00
2009,07,28,09,31,27.00
2009,07,28,09,32,27.10
2009,07,28,09,33,27.10
2009,07,28,09,34,27.20
2009,07,28,09,35,27.10
2009,07,28,09,36,27.10
2009,07,28,09,37,27.00
2009,07,28,09,38,26.90
2009,07,28,09,39,26.90
2009,07,28,09,40,26.90
2009,07,28,09,41,26.90
2009,07,28,09,42,26.90
2009,07,28,09,43,26.90
2009,07,28,09,44,26.90
2009,07,28,09,45,26.90
2009,07,28,09,46,26.90
2009,07,28,09,47,26.90
2009,07,28,09,48,26.90
2009,07,28,09,49,27.00
2009,07,28,09,50,27.00
2009,07,28,09,51,27.00
2009,07,28,09,52,27.00
2009,07,28,09,53,27.00
2009,07,28,09,54,26.90
2009,07,28,09,55,26.90
2009,07,28,09,56,26.90
2009,07,28,09,57,26.90
2009,07,28,09,58,26.90
2009,07,28,09,59,26.90
2009,07,28,10,00,26.90
2009,07,28,10,01,26.90
2009,07,28,10,02,26.90
2009,07,28,10,03,26.90
2009,07,28,10,04,27.00
2009,07,28,10,05,27.00
2009,07,28,10,06,27.10
2009,07,28,10,07,27.10
2009,07,28,10,08,27.10
2009,07,28,10,09,27.10
2009,07,28,10,10,27.00
2009,07,28,10,11,26.90
2009,07,28,10,12,26.90
2009,07,28,10,13,27.00
2009,07,28,10,14,27.00
2009,07,28,10,15,27.10
2009,07,28,10,16,27.20
2009,07,28,10,17,27.20
2009,07,28,10,18,27.30
2009,07,28,10,19,27.40
2009,07,28,10,20,27.50
2009,07,28,10,21,27.50
2009,07,28,10,22,27.50
2009,07,28,10,23,27.50
2009,07,28,10,24,27.40
2009,07,28,10,25,27.40
2009,07,28,10,26,27.40
2009,07,28,10,27,27.40
2009,07,28,10,28,27.50
2009,07,28,10,29,27.50
2009,07,28,10,30,27.60
2009,07,28,10,31,27.70
2009,07,28,10,32,27.70
2009,07,28,10,33,27.80
2009,07,28,10,34,27.90
2009,07,28,10,35,27.90
2009,07,28,10,36,28.00
2009,07,28,10,37,28.00
2009,07,28,10,38,28.10
2009,07,28,10,39,28.00
2009,07,28,10,40,27.90
2009,07,28,10,41,27.90
2009,07,28,10,42,27.80
2009,07,28,10,43,27.80
2009,07,28,10,44,27.80
2009,07,28,10,45,27.80
2009,07,28,10,46,27.70
2009,07,28,10,47,27.70
2009,07,28,10,48,27.70
2009,07,28,10,49,27.70
2009,07,28,10,50,27.70
2009,07,28,10,51,27.80
2009,07,28,10,52,27.80
2009,07,28,10,53,27.90
2009,07,28,10,54,28.00
2009,07,28,10,55,28.10
2009,07,28,10,56,28.10
2009,07,28,10,57,28.20
2009,07,28,10,58,28.20
2009,07,28,10,59,28.20
2009,07,28,11,00,28.20
2009,07,28,11,01,28.30
2009,07,28,11,02,28.30
2009,07,28,11,03,28.30
2009,07,28,11,04,28.30
2009,07,28,11,05,28.20
2009,07,28,11,06,28.20
2009,07,28,11,07,28.10
2009,07,28,11,08,28.10
2009,07,28,11,09,28.10
2009,07,28,11,10,28.10
2009,07,28,11,11,28.10
2009,07,28,11,12,28.10
2009,07,28,11,13,28.10
2009,07,28,11,14,28.10
2009,07,28,11,15,28.10
2009,07,28,11,16,28.10
2009,07,28,11,17,28.20
2009,07,28,11,18,28.20
2009,07,28,11,19,28.30
2009,07,28,11,20,28.40
2009,07,28,11,21,28.40
2009,07,28,11,22,28.50
2009,07,28,11,23,28.60
2009,07,28,11,24,28.70
2009,07,28,11,25,28.70
2009,07,28,11,26,28.70
2009,07,28,11,27,28.80
2009,07,28,11,28,28.80
2009,07,28,11,29,28.80
2009,07,28,11,30,28.90
2009,07,28,11,31,28.90
2009,07,28,11,32,29.00
2009,07,28,11,33,29.10
2009,07,28,11,34,29.20
2009,07,28,11,35,29.20
2009,07,28,11,36,29.20
2009,07,28,11,37,29.10
2009,07,28,11,38,29.10
2009,07,28,11,39,29.10
2009,07,28,11,40,29.20
2009,07,28,11,41,29.30
2009,07,28,11,42,29.30
2009,07,28,11,43,29.30
2009,07,28,11,44,29.30
2009,07,28,11,45,29.30
2009,07,28,11,46,29.30
2009,07,28,11,47,29.40
2009,07,28,11,48,29.40
2009,07,28,11,49,29.40
2009,07,28,11,50,29.40
2009,07,28,11,51,29.40
2009,07,28,11,52,29.40
2009,07,28,11,53,29.40
2009,07,28,11,54,29.40
2009,07,28,11,55,29.50
2009,07,28,11,56,29.50
2009,07,28,11,57,29.50
2009,07,28,11,58,29.50
2009,07,28,11,59,29.50
2009,07,28,12,00,29.60
2009,07,28,12,01,29.70
2009,07,28,12,02,29.80
2009,07,28,12,03,29.80
2009,07,28,12,04,29.80
2009,07,28,12,05,29.80
2009,07,28,12,06,29.90
2009,07,28,12,07,30.00
2009,07,28,12,08,30.10
2009,07,28,12,09,30.20
2009,07,28,12,10,30.10
2009,07,28,12,11,30.10
2009,07,28,12,12,30.20
2009,07,28,12,13,30.20
2009,07,28,12,14,30.30
2009,07,28,12,15,30.40
2009,07,28,12,16,30.40
2009,07,28,12,17,30.40
2009,07,28,12,18,30.40
2009,07,28,12,19,30.40
2009,07,28,12,20,30.40
2009,07,28,12,21,30.40
2009,07,28,12,22,30.40
2009,07,28,12,23,30.30
2009,07,28,12,24,30.30
2009,07,28,12,25,30.30
2009,07,28,12,26,30.40
2009,07,28,12,27,30.50
2009,07,28,12,28,30.60
2009,07,28,12,29,30.60
2009,07,28,12,30,30.70
2009,07,28,12,31,30.80
2009,07,28,12,32,30.90
2009,07,28,12,33,30.90
2009,07,28,12,34,31.00
2009,07,28,12,35,31.00
2009,07,28,12,36,31.10
2009,07,28,12,37,31.10
2009,07,28,12,38,31.20
2009,07,28,12,39,31.20
2009,07,28,12,40,31.10
2009,07,28,12,41,31.10
2009,07,28,12,42,31.00
2009,07,28,12,43,30.80
2009,07,28,12,44,30.70
2009,07,28,12,45,30.60
2009,07,28,12,46,30.60
2009,07,28,12,47,30.60
2009,07,28,12,48,30.60
2009,07,28,12,49,30.60
2009,07,28,12,50,30.60
2009,07,28,12,51,30.70
2009,07,28,12,52,30.60
2009,07,28,12,53,30.60
2009,07,28,12,54,30.60
2009,07,28,12,55,30.50
2009,07,28,12,56,30.50
2009,07,28,12,57,30.50
2009,07,28,12,58,30.60
2009,07,28,12,59,30.60
2009,07,28,13,00,30.60
2009,07,28,13,01,30.70
2009,07,28,13,02,30.80
2009,07,28,13,03,30.80
2009,07,28,13,04,30.70
2009,07,28,13,05,30.70
2009,07,28,13,06,30.60
2009,07,28,13,07,30.60
2009,07,28,13,08,30.60
2009,07,28,13,09,30.60
2009,07,28,13,10,30.60
2009,07,28,13,11,30.60
2009,07,28,13,12,30.70
2009,07,28,13,13,30.70
2009,07,28,13,14,30.80
2009,07,28,13,15,30.80
2009,07,28,13,16,30.90
2009,07,28,13,17,30.90
2009,07,28,13,18,31.00
2009,07,28,13,19,31.00
2009,07,28,13,20,31.00
2009,07,28,13,21,31.10
2009,07,28,13,22,31.10
2009,07,28,13,23,31.20
2009,07,28,13,24,31.20
2009,07,28,13,25,31.30
2009,07,28,13,26,31.40
2009,07,28,13,27,31.50
2009,07,28,13,28,31.60
2009,07,28,13,29,31.70
2009,07,28,13,30,31.80
2009,07,28,13,31,31.80
2009,07,28,13,32,31.90
2009,07,28,13,33,31.90
2009,07,28,13,34,32.00
2009,07,28,13,35,32.00
2009,07,28,13,36,31.90
2009,07,28,13,37,31.80
2009,07,28,13,38,31.70
2009,07,28,13,39,31.60
2009,07,28,13,40,31.60
2009,07,28,13,41,31.60
2009,07,28,13,42,31.60
2009,07,28,13,43,31.60
2009,07,28,13,44,31.60
2009,07,28,13,45,31.60
2009,07,28,13,46,31.50
2009,07,28,13,47,31.50
2009,07,28,13,48,31.60
2009,07,28,13,49,31.60
2009,07,28,13,50,31.60
2009,07,28,13,51,31.60
2009,07,28,13,52,31.70
2009,07,28,13,53,31.70
2009,07,28,13,54,31.70
2009,07,28,13,55,31.80
2009,07,28,13,56,31.80
2009,07,28,13,57,31.90
2009,07,28,13,58,31.90
2009,07,28,13,59,32.00
2009,07,28,14,00,32.10
2009,07,28,14,01,32.10
2009,07,28,14,02,32.00
2009,07,28,14,03,32.00
2009,07,28,14,04,32.10
2009,07,28,14,05,32.20
2009,07,28,14,06,32.30
2009,07,28,14,07,32.40
2009,07,28,14,08,32.40
2009,07,28,14,09,32.40
2009,07,28,14,10,32.40
2009,07,28,14,11,32.40
2009,07,28,14,12,32.40
2009,07,28,14,13,32.40
2009,07,28,14,14,32.40
2009,07,28,14,15,32.50
2009,07,28,14,16,32.40
2009,07,28,14,17,32.50
2009,07,28,14,18,32.50
2009,07,28,14,19,32.50
2009,07,28,14,20,32.60
2009,07,28,14,21,32.50
2009,07,28,14,22,32.60
2009,07,28,14,23,32.60
2009,07,28,14,24,32.60
2009,07,28,14,25,32.70
2009,07,28,14,26,32.80
2009,07,28,14,27,32.90
2009,07,28,14,28,33.00
2009,07,28,14,29,33.10
2009,07,28,14,30,33.10
2009,07,28,14,31,33.20
2009,07,28,14,32,33.20
2009,07,28,14,33,33.30
2009,07,28,14,34,33.30
2009,07,28,14,35,33.40
2009,07,28,14,36,33.40
2009,07,28,14,37,33.50
2009,07,28,14,38,33.50
2009,07,28,14,39,33.60
2009,07,28,14,40,33.60
2009,07,28,14,41,33.60
2009,07,28,14,42,33.50
2009,07,28,14,43,33.30
2009,07,28,14,44,33.30
2009,07,28,14,45,33.20
2009,07,28,14,46,33.20
2009,07,28,14,47,33.10
2009,07,28,14,48,33.20
2009,07,28,14,49,33.20
2009,07,28,14,50,33.20
2009,07,28,14,51,33.20
2009,07,28,14,52,33.20
2009,07,28,14,53,33.20
2009,07,28,14,54,33.30
2009,07,28,14,55,33.40
2009,07,28,14,56,33.40
2009,07,28,14,57,33.20
2009,07,28,14,58,33.10
2009,07,28,14,59,32.90
2009,07,28,15,00,32.80
2009,07,28,15,01,32.80
2009,07,28,15,02,32.70
2009,07,28,15,03,32.70
2009,07,28,15,04,32.60
2009,07,28,15,05,32.50
2009,07,28,15,06,32.40
2009,07,28,15,07,32.30
2009,07,28,15,08,32.20
2009,07,28,15,09,32.10
2009,07,28,15,10,31.80
2009,07,28,15,11,31.70
2009,07,28,15,12,31.60
2009,07,28,15,13,31.50
2009,07,28,15,14,31.40
2009,07,28,15,15,31.40
2009,07,28,15,16,31.30
2009,07,28,15,17,31.30
2009,07,28,15,18,31.30
2009,07,28,15,19,31.30
2009,07,28,15,20,31.30
2009,07,28,15,21,31.30
2009,07,28,15,22,31.20
2009,07,28,15,23,31.20
2009,07,28,15,24,31.20
2009,07,28,15,25,31.20
2009,07,28,15,26,31.10
2009,07,28,15,27,31.20
2009,07,28,15,28,31.30
2009,07,28,15,29,31.30
2009,07,28,15,30,31.30
2009,07,28,15,31,31.40
2009,07,28,15,32,31.40
2009,07,28,15,33,31.30
2009,07,28,15,34,31.30
2009,07,28,15,35,31.20
2009,07,28,15,36,31.30
2009,07,28,15,37,31.30
2009,07,28,15,38,31.40
2009,07,28,15,39,31.30
2009,07,28,15,40,31.30
2009,07,28,15,41,31.30
2009,07,28,15,42,31.30
2009,07,28,15,43,31.30
2009,07,28,15,44,31.30
2009,07,28,15,45,31.20
2009,07,28,15,46,31.20
2009,07,28,15,47,31.20
2009,07,28,15,48,31.10
2009,07,28,15,49,31.10
2009,07,28,15,50,31.00
2009,07,28,15,51,31.00
2009,07,28,15,52,30.90
2009,07,28,15,53,30.90
2009,07,28,15,54,30.90
2009,07,28,15,55,30.80
2009,07,28,15,56,30.70
2009,07,28,15,57,30.60
2009,07,28,15,58,30.50
2009,07,28,15,59,30.30
2009,07,28,16,00,30.20
2009,07,28,16,01,30.10
2009,07,28,16,02,30.10
2009,07,28,16,03,30.10
2009,07,28,16,04,30.20
2009,07,28,16,05,30.20
2009,07,28,16,06,30.20
2009,07,28,16,07,30.20
2009,07,28,16,08,30.20
2009,07,28,16,09,30.20
2009,07,28,16,10,30.20
2009,07,28,16,11,30.20
2009,07,28,16,12,30.20
2009,07,28,16,13,30.20
2009,07,28,16,14,30.30
2009,07,28,16,15,30.30
2009,07,28,16,16,30.30
2009,07,28,16,17,30.30
2009,07,28,16,18,30.20
2009,07,28,16,19,30.20
2009,07,28,16,20,30.20
2009,07,28,16,21,30.20
2009,07,28,16,22,30.10
2009,07,28,16,23,30.10
2009,07,28,16,24,30.20
2009,07,28,16,25,30.20
2009,07,28,16,26,30.20
2009,07,28,16,27,30.20
2009,07,28,16,28,30.30
2009,07,28,16,29,30.30
2009,07,28,16,30,30.40
2009,07,28,16,31,30.40
2009,07,28,16,32,30.50
2009,07,28,16,33,30.50
2009,07,28,16,34,30.50
2009,07,28,16,35,30.50
2009,07,28,16,36,30.50
2009,07,28,16,37,30.60
2009,07,28,16,38,30.60
2009,07,28,16,39,30.60
2009,07,28,16,40,30.60
2009,07,28,16,41,30.60
2009,07,28,16,42,30.70
2009,07,28,16,43,30.60
2009,07,28,16,44,30.60
2009,07,28,16,45,30.60
2009,07,28,16,46,30.60
2009,07,28,16,47,30.60
2009,07,28,16,48,30.60
2009,07,28,16,49,30.60
2009,07,28,16,50,30.70
2009,07,28,16,51,30.80
2009,07,28,16,52,30.70
2009,07,28,16,53,30.70
2009,07,28,16,54,30.70
2009,07,28,16,55,30.70
2009,07,28,16,56,30.80
2009,07,28,16,57,30.90
2009,07,28,16,58,30.90
2009,07,28,16,59,30.90
2009,07,28,17,00,30.90
2009,07,28,17,01,30.90
2009,07,28,17,02,31.00
2009,07,28,17,03,31.10
2009,07,28,17,04,31.20
2009,07,28,17,05,31.10
2009,07,28,17,06,31.10
2009,07,28,17,07,31.10
2009,07,28,17,08,31.10
2009,07,28,17,09,31.10
2009,07,28,17,10,31.10
2009,07,28,17,11,31.20
2009,07,28,17,12,31.20
2009,07,28,17,13,31.30
2009,07,28,17,14,31.30
2009,07,28,17,15,31.30
2009,07,28,17,16,31.40
2009,07,28,17,17,31.50
2009,07,28,17,18,31.50
2009,07,28,17,19,31.50